SL-16 DEB, 39715

Orbit data source: Space-Track

SL-16 DEB, 39715 is space debris in LEO originally from a launch on Fri, 25 Dec 1992 UTC launched from the Tyuratam Missile And Space Complex (TTMTR). Debris objects in space refer to the collection of defunct objects orbiting the Earth. Examples of debris include non-operational satellites, rocket bodies, and fragments generated from explosions, collisions, or faulty payload assembly.

Loading next visibility...
Identifier
39715, 1992-093KF
Orbit
LEO
Country
Flag of CISCIS
Related business
Manufacturer
Unknown
Mission
Spacecraft
Bus & Motor
Unknown
Mass
Unknown
Launch date (UTC)
1992-12-25 (33 years ago)
Launch vehicle
Unknown
Launch site
Tyuratam Missile And Space Complex (TTMTR)
Object type
Payload
Rocket body
Debris
Shape & HBR
Unknown shape, 0.1 m
Radar Cross Section
Small (<0.1 m²)

Expand to show TLE details & history
Last TLE update: 1 day ago

TLE from 1 day ago
0 SL-16 DEB
1 39715U 92093KF  25303.36320305  .00001604  00000-0  61246-3 0  9996
2 39715  71.0108 296.5761 0002782 356.7022   3.4090 14.32282603601604
Epoch: 2025-10-30T08:43Z
TLE epoch observation values (Epoch: 2025-10-30T08:43:00.743Z)
Latitude
-0.00012°
Longitude
126.8999°
Altitude
784.542 km
Speed
7.463 km/s
True Right ascension
19h 46m 18s
True Declination
0° 00' 00"
Sunlit
Object was in daylight at epoch
Visualization orbit readout
Latitude
Unknown
Longitude
Unknown
Altitude
Unknown
Speed
Unknown
Apparent Right ascension
Unknown
Apparent Declination
Unknown
Sunlit
N/A
Visualization observer readout
Local Sidereal Time
08:02:55
Azimuth
Unknown
Elevation
Unknown
Doppler factor
Unknown
Orbital elements
Apogee altitude
784.01 km
Perigee altitude
780.026 km
Semi-major axis
7,160.155 km
Eccentricity
0.00028
Inclination
71.0108°
RAAN
296.5761°
Arg. of periapsis
356.7022°
True anomaly
3.4109°
Mean anomaly
3.409°
Eccentric anomaly
3.40995°
Mean motion
3.58228 °/min
Orbital period
100.49 mins
BSTAR
0.00061246
Loading maneuver chart data...
Computing Atmospheric mass density...
Loading historical data...
Loading historical data...
Loading historical data...
Loading historical data...
Loading historical data...
Loading historical data...
Loading historical data...

Documentation

Showing up to 5 results
|